Meteo Giornale » Osservazioni meteo Stati Uniti (USA) » Pocono Mountains
ore: 02:53 - Osservazioni Meteo Pocono Mountains
Lat. 41° 8' N Lon. 75° 23' W Alt. 584 metri s.l.m.
19 °C
Foschia
Temp. 24 Ore
17 °C
20 °C
Ovest
11.1 Km/h
Dew point 19 °C
Umidità 100 %
Visibilità 5 Km
Il sole sorge alle ore 06:28
Il sole tramonta alle ore 19:34
| Data e Ora | Cielo e Fenomeni | T °C | DP °C | Um. % | Pres. hPa | Vis. km | Vento km/h | |
|---|---|---|---|---|---|---|---|---|
| Oggi h: 02:53 | Foschia | 19 | 19 | 100 | 1018 | 5 | O 11.1 | |
| Oggi h: 01:53 | Foschia | 19 | 19 | 100 | 1018 | 6 | O 13 | |
| Oggi h: 01:44 | Foschia | 19 | 19 | 100 | 1018 | 6 | O/SO 11.1 | |
| Oggi h: 00:53 | Foschia | 19 | 18 | 93 | 1019 | 8 | O/SO 9.3 | |
| Oggi h: 00:07 | Pioggia | 19 | 18 | 93 | 1019 | 11 | O/SO 11.1 | |
| Ieri h: 23:53 | Pioggia | 19 | 18 | 93 | 1019 | 11 | O 9.3 | |
| Ieri h: 22:53 | Coperto | 19 | 18 | 93 | 1019 | 14 | O/SO 11.1 | |
| Ieri h: 21:53 | Coperto | 19 | 18 | 93 | 1020 | 10 | O/SO 7.4 | |
| Ieri h: 20:53 | Coperto | 19 | 18 | 93 | 1019 | 14 | SO 9.3 | |
| Ieri h: 19:53 | Coperto | 19 | 18 | 93 | 1019 | 10 | SO 7.4 | |
| Ieri h: 19:50 | Coperto | 19 | 18 | 93 | 1019 | 10 | S/SO 7.4 | |
| Ieri h: 19:01 | Coperto | 19 | 18 | 93 | 1020 | 10 | N 5.5 | |
| Ieri h: 18:53 | Coperto | 19 | 18 | 93 | 1020 | 10 | O/SO 11.1 | |
| Ieri h: 17:53 | Coperto | 20 | 18 | 88 | 1020 | 10 | SO 13 | |
| Ieri h: 16:53 | Coperto | 20 | 18 | 88 | 1020 | 10 | S 9.3 | |
| Ieri h: 16:15 | Coperto | 19 | 18 | 93 | 1020 | 10 | N 0 | |
| Ieri h: 15:53 | Coperto | 19 | 18 | 93 | 1021 | 10 | N 0 | |
| Ieri h: 15:36 | Coperto | 19 | 18 | 93 | 1021 | 10 | O/SO 9.3 | |
| Ieri h: 15:19 | Pioggia | 19 | 18 | 93 | 1021 | 10 | O/SO 9.3 | |
| Ieri h: 15:06 | Pioggia | 19 | 18 | 93 | 1021 | 10 | SO 9.3 | |
| Ieri h: 14:53 | Pioggia | 19 | 17 | 88 | 1021 | 14 | N 0 | |
| Ieri h: 14:39 | Pioggia Foschia | 18 | 18 | 100 | 1021 | 5 | N 0 | |
| Ieri h: 14:34 | Pioggia Foschia | 18 | 18 | 100 | 1022 | 2 | S/SO 7.4 | |
| Ieri h: 14:29 | Pioggia Foschia | 18 | 17 | 93 | 1022 | 5 | SO 7.4 | |
| Ieri h: 14:21 | Pioggia Foschia | 18 | 17 | 93 | 1022 | 2 | N 0 | |
| Ieri h: 13:53 | Pioggia | 19 | 17 | 88 | 1022 | 14 | N 5.5 | |
| Ieri h: 12:53 | Pioggia | 19 | 17 | 88 | 1022 | 8 | S 7.4 | |
| Ieri h: 11:53 | Coperto | 20 | 16 | 77 | 1022 | 10 | E/SE 13 | |
| Ieri h: 11:23 | Coperto | 19 | 16 | 82 | 1022 | 10 | SE 11.1 | |
| Ieri h: 10:53 | Coperto | 19 | 16 | 82 | 1022 | 10 | N 7.4 | |
| Ieri h: 09:53 | Coperto | 19 | 15 | 77 | 1022 | 10 | N 5.5 | |
| Ieri h: 08:53 | Coperto | 18 | 16 | 88 | 1022 | 10 | N 0 | |
| Ieri h: 07:53 | Coperto | 17 | 15 | 88 | 1022 | 10 | N 7.4 | |
| Ieri h: 07:04 | Coperto | 17 | 14 | 82 | 1021 | 10 | N 7.4 | |
| Ieri h: 06:53 | Molto Nuvoloso | 17 | 14 | 82 | 1021 | 10 | N 5.5 | |



